Regional Weather Roundup
Issued by NWS Charleston, SC

Current Version | Previous Version | Graphics & Text | Print | Product List | Glossary On
Versions: 1 2 3 4 5 6 7 8 9 10 11 12 13 14 15 16 17 18 19 20 21 22 23 24 25 26 27 28 29 30 31 32 33 34 35 36 37 38 39 40 41 42 43 44 45 46 47 48 49 50
000
ASUS42 KCHS 040127
RWRCHS
REGIONAL WEATHER ROUNDUP
NATIONAL WEATHER SERVICE CHARLESTON SC
900 PM EDT MON AUG 03 2015

NOTE: "FAIR" INDICATES FEW OR NO CLOUDS BELOW 12,000 FEET WITH NO
SIGNIFICANT WEATHER AND/OR OBSTRUCTIONS TO VISIBILITY.

NOT ALL STATIONS ARE QUALITY CONTROLLED BY THE NATIONAL
WEATHER SERVICE. USE DATA WITH CAUTION...ESPECIALLY
DEWPOINT OBSERVATIONS.

SCZ027-030-031-034>040-042>050-040200-
...SOUTHEAST SOUTH CAROLINA...

CITY           SKY/WX    TMP DP  RH WIND       PRES   REMARKS
N CHARLESTON   PTCLDY    79  74  84 E7        29.90S
WATERFRONT PRK   N/A     82  76  82 SE7       29.88R
MOUNT PLEASANT LGT RAIN  75  75 100 CALM      29.91F
JOHNS ISLAND   HVY RAIN  79  77  94 E6G17     29.90S VSB 1
PINOPOLIS      NOT AVBL
MONCKS CORNER  FAIR      81  70  69 SE5       29.91R
SUMMERVILLE    FAIR      79  73  83 CALM      29.91R
BEAUFORT MCAS  CLEAR     80  75  84 E3        29.88S
BEAUFORT ARPT  NOT AVBL
HILTON HEAD IS MOCLDY    79  77  94 E6        29.89S
WALTERBORO     CLEAR     79  75  89 E7        29.89F
ALLENDALE      NOT AVBL

...SOUTHERN MIDLANDS AND PEE DEE...

CITY           SKY/WX    TMP DP  RH WIND       PRES   REMARKS
GEORGETOWN     NOT AVBL
KINGSTREE      NOT AVBL
ORANGEBURG     CLEAR     78  73  84 NE5       29.92R
BARNWELL       NOT AVBL
AIKEN          NOT AVBL
MANNING        NOT AVBL
COLUMBIA       PTCLDY    82  70  66 SE8       29.91R
SUMTER         PTCLDY    80  72  75 SE3       29.91R
FLORENCE       CLEAR     80  73  79 S5        29.93R
MYRTLE BEACH   NOT AVBL
N MYRTLE BEACH CLOUDY    79  70  74 S7        29.93F

$$

GAZ063-065-086>088-099>101-113>116-118-119-134>141-150-040200-
...SOUTHEAST GEORGIA...

CITY           SKY/WX    TMP DP  RH WIND       PRES   REMARKS
SAVANNAH ARPT  PTCLDY    79  75  87 E6        29.87S
HUNTER AAF     CLOUDY    79  79 100 NE3       29.85R
FORT STEWART   PTCLDY    81  73  78 NE5       29.84F
STATESBORO     CLEAR     77  32  19 CALM      29.88F
SYLVANIA       CLEAR     78  78  98 E3        29.89S
CLAXTON        NOT AVBL

...CSRA...CENTRAL AND FAR SOUTHEAST GEORGIA...

CITY           SKY/WX    TMP DP  RH WIND       PRES   REMARKS
THOMSON        CLEAR     84  76  77 SE3       29.95R HX  93
AUGUSTA-BUSH   CLEAR     79  73  82 SE6       29.89R
AUGUSTA-DANIEL CLEAR     81  72  74 SE7       29.91R
SWAINSBORO     FAIR     N/A N/A N/A CALM      29.90S
VIDALIA        CLEAR     79  75  89 E5        29.89R
EASTMAN        FAIR      79  78  99 CALM      29.91R
HAZLEHURST     FAIR      80  80 100 CALM      29.87S HX  90
ALMA           FAIR      79  77  94 CALM      29.87R
WAYCROSS       CLEAR     81  81  98 CALM      29.89R HX  93
JESUP          MOCLDY    81  79  94 CALM      29.88R
BAXLEY         FAIR      81  77  89 CALM      29.88R
BRUNSWICK      CLOUDY    79  77  94 CALM      29.88R
SAINT SIMONS   MOCLDY    81  77  88 SW6       29.86R

$$

SCZ027-028-034-036>038-045-046-048>050-GAZ119-141-040200-
...LAKE AND SUPPLEMENTAL COASTAL OBSERVATIONS...

STATION/POSITION TIME  TEMP    WIND        PRES    WAVE   SWELL
                       AIR SEA DIR/SP/G            HT/PER HT/PER/DIR
                 (UTC) (F)     (DEG/KT/KT) (MB)    (FT/S) (FT/S/D)
UPR LAKE MARION  NOT AVBL
WINYAH BAY       0000   80     100/  8     1013.0
LAKE MURRAY      0000   85     160/ 12/ 13 1011.9R
ACE BASIN NERRS  NOT AVBL
FORT PULASKI     0100   78 85  110/  6/  8 1011.8F
SAPELO ISLAND    0100   80        CALM     1011.0S

$$

ANZ835-935-AMZ111-154-330-350-352-354-370-450-454-472-040200-
...C-MAN AND BUOY OBSERVATIONS...

STATION/POSITION TIME  TEMP    WIND        PRES    WAVE   SWELL
                       AIR SEA DIR/SP/G            HT/PER HT/PER/DIR
                 (UTC) (F)     (DEG/KT/KT) (MB)    (FT/S) (FT/S/D)
BUOY 41004       0050   83 83  140/  8/ 10 1013.0R   5/ 6   5/ 6
BUOY 41008       0050   80 83  190/ 16/ 17 1010.8F   5/ 7   2/ 80/11
FOLLY BEACH CMAN 0100   81     180/ 14/ 18 1013.0R
CAPERS NEARSHORE 0008   83     160/ 10/ 14 1013.0R
FRIPP NEARSHORE  NOT AVBL


STATION/POSITION TIME  TEMP    WIND        PRES    WAVE   SWELL
                       AIR SEA DIR/SP/G            HT/PER HT/PER/DIR
                 (UTC) (F)     (DEG/KT/KT) (MB)    (FT/S) (FT/S/D)
5E ST. MARYS GA  0021      82                N/A     4/ 6
FRYING PAN BUOY  0050   83 82  190/  8/ 10 1014.9S   5/ 6   5/180/ 6
BUOY 41025       0050   80 84  180/ 19/ 23 1014.7S   4/ 6   2/210/ 6
CAPE LOOKOUT NC  0100   80     190/ 11/ 13 1014.6R
BUOY 41002       0050   80 81  220/ 12/ 16 1017.8R   5/ 6   3/230/ 6
BUOY 41010       0020   84 84  190/ 16/ 17 1015.2R
ST AUGUSTINE FL  0100   76 79  220/  9/ 11 1013.4R


$$


USA.gov is the U.S. government's official web portal to all federal, state and local government web resources and services.